When you browse on this site, cookies collect data to enhance your experience and personalize the content and advertising you see.
Visit our Privacy Policy to learn more. By continuing to use the site, you agree to this use of cookies and data.
  • In Hungary
  • List of Countries
  • For 7 days
  • Water Temperature
  • Satellite Maps
  • Weather Map
  • News
  • Weather Widgets
  • user-avatar
    Login

    Hourly Weather Cochabamba

    Today, 20 April, Saturday

    Time Temperature Precipitation Wind Pressure Humidity
    00:00 +18°C° 0.3 mm 1 mps 555 mmHg 75%
    01:00 +18°C° 0.3 mm 1 mps 555 mmHg 76%
    02:00 +16°C° 0.3 mm 2 mps 555 mmHg 76%
    03:00 +16°C° 0 mm 2 mps 555 mmHg 78%
    04:00 +16°C° 0 mm 2 mps 555 mmHg 79%
    05:00 +16°C° 0 mm 2 mps 555 mmHg 80%
    06:00 +17°C° 0 mm 2 mps 555 mmHg 76%
    07:00 +18°C° 0 mm 2 mps 556 mmHg 72%
    08:00 +18°C° 0 mm 2 mps 557 mmHg 68%
    09:00 +20°C° 0 mm 2 mps 558 mmHg 59%
    10:00 +21°C° 0 mm 2 mps 558 mmHg 51%
    11:00 +24°C° 0 mm 1 mps 559 mmHg 43%
    12:00 +25°C° 0.2 mm 2 mps 558 mmHg 41%
    13:00 +25°C° 0.2 mm 2 mps 558 mmHg 39%
    14:00 +26°C° 0.2 mm 2 mps 558 mmHg 38%
    15:00 +25°C° 1.1 mm 2 mps 557 mmHg 40%
    16:00 +25°C° 1.1 mm 3 mps 557 mmHg 43%
    17:00 +24°C° 1.1 mm 3 mps 556 mmHg 45%
    18:00 +22°C° 0.5 mm 3 mps 556 mmHg 54%
    19:00 +20°C° 0.5 mm 3 mps 555 mmHg 62%
    20:00 +18°C° 0.5 mm 2 mps 555 mmHg 70%
    21:00 +18°C° 0.2 mm 2 mps 555 mmHg 72%
    22:00 +17°C° 0.2 mm 2 mps 555 mmHg 74%
    23:00 +17°C° 0.2 mm 2 mps 555 mmHg 76%

    Tomorrow, 21 April, Sunday

    Time Temperature Precipitation Wind Pressure Humidity
    00:00 +17°C° 0.7 mm 2 mps 555 mmHg 75%
    01:00 +17°C° 0.7 mm 2 mps 555 mmHg 74%
    02:00 +16°C° 0.7 mm 1 mps 555 mmHg 72%
    03:00 +16°C° 0.3 mm 1 mps 554 mmHg 72%
    04:00 +16°C° 0.3 mm 1 mps 554 mmHg 71%
    05:00 +15°C° 0.3 mm 1 mps 554 mmHg 70%
    06:00 +17°C° 0.1 mm 2 mps 555 mmHg 65%
    07:00 +18°C° 0.1 mm 2 mps 555 mmHg 60%
    08:00 +19°C° 0.1 mm 2 mps 556 mmHg 56%
    09:00 +20°C° 0.4 mm 2 mps 557 mmHg 51%
    10:00 +23°C° 0.4 mm 1 mps 558 mmHg 46%
    11:00 +24°C° 0.4 mm 1 mps 558 mmHg 41%
    12:00 +25°C° 0.6 mm 2 mps 558 mmHg 40%
    13:00 +26°C° 0.6 mm 2 mps 557 mmHg 39%
    14:00 +26°C° 0.6 mm 2 mps 557 mmHg 39%
    15:00 +25°C° 1 mm 2 mps 556 mmHg 41%
    16:00 +25°C° 1 mm 2 mps 556 mmHg 42%
    17:00 +24°C° 1 mm 1 mps 555 mmHg 44%
    18:00 +23°C° 1.1 mm 1 mps 555 mmHg 51%
    19:00 +20°C° 1.1 mm 2 mps 555 mmHg 57%
    20:00 +19°C° 1.1 mm 2 mps 554 mmHg 63%
    21:00 +18°C° 0.8 mm 2 mps 555 mmHg 67%
    22:00 +17°C° 0.8 mm 2 mps 555 mmHg 70%
    23:00 +17°C° 0.8 mm 2 mps 555 mmHg 74%

    Day after tomorrow, 22 April, Monday

    Time Temperature Precipitation Wind Pressure Humidity
    00:00 +16°C° 0.4 mm 2 mps 554 mmHg 76%
    01:00 +15°C° 0.4 mm 1 mps 554 mmHg 77%
    02:00 +15°C° 0.4 mm 1 mps 553 mmHg 79%
    03:00 +15°C° 0 mm 1 mps 553 mmHg 78%
    04:00 +14°C° 0 mm 1 mps 553 mmHg 77%
    05:00 +14°C° 0 mm 1 mps 553 mmHg 76%
    06:00 +15°C° 0 mm 1 mps 554 mmHg 70%
    07:00 +16°C° 0 mm 1 mps 555 mmHg 64%
    08:00 +17°C° 0 mm 0 mps 556 mmHg 57%
    09:00 +20°C° 0.1 mm 1 mps 556 mmHg 53%
    10:00 +22°C° 0.1 mm 1 mps 557 mmHg 49%
    11:00 +23°C° 0.1 mm 1 mps 558 mmHg 45%
    12:00 +24°C° 0.7 mm 1 mps 557 mmHg 43%
    13:00 +24°C° 0.7 mm 1 mps 556 mmHg 41%
    14:00 +25°C° 0.7 mm 1 mps 556 mmHg 39%
    15:00 +24°C° 0.8 mm 1 mps 556 mmHg 40%
    16:00 +24°C° 0.8 mm 2 mps 555 mmHg 41%
    17:00 +24°C° 0.8 mm 2 mps 555 mmHg 42%
    18:00 +21°C° 0.5 mm 2 mps 555 mmHg 51%
    19:00 +19°C° 0.5 mm 2 mps 554 mmHg 60%
    20:00 +17°C° 0.5 mm 2 mps 554 mmHg 69%
    21:00 +17°C° 0.1 mm 2 mps 555 mmHg 70%
    22:00 +18°C° 0.1 mm 1 mps 555 mmHg 72%
    23:00 +18°C° 0.1 mm 1 mps 556 mmHg 73%

    23 April, Tuesday

    Time Temperature Precipitation Wind Pressure Humidity
    00:00 +18°C° 0.3 mm 1 mps 556 mmHg 72%
    01:00 +18°C° 0.3 mm 1 mps 555 mmHg 72%
    02:00 +16°C° 0.3 mm 1 mps 555 mmHg 72%
    03:00 +16°C° 0.3 mm 1 mps 555 mmHg 72%
    04:00 +16°C° 0.3 mm 1 mps 555 mmHg 73%
    05:00 +16°C° 0.3 mm 1 mps 555 mmHg 73%
    06:00 +16°C° 1 mm 1 mps 555 mmHg 72%
    07:00 +16°C° 1 mm 1 mps 556 mmHg 71%
    08:00 +16°C° 1 mm 1 mps 556 mmHg 70%
    09:00 +18°C° 1.9 mm 1 mps 557 mmHg 69%
    10:00 +18°C° 1.9 mm 1 mps 557 mmHg 68%
    11:00 +18°C° 1.9 mm 1 mps 557 mmHg 66%
    12:00 +18°C° 1.6 mm 1 mps 556 mmHg 66%
    13:00 +17°C° 1.6 mm 2 mps 556 mmHg 66%
    14:00 +17°C° 1.6 mm 2 mps 555 mmHg 66%
    15:00 +18°C° 0.3 mm 2 mps 555 mmHg 64%
    16:00 +19°C° 0.3 mm 1 mps 555 mmHg 62%
    17:00 +19°C° 0.3 mm 1 mps 555 mmHg 61%
    18:00 +18°C° 0.1 mm 1 mps 555 mmHg 65%
    19:00 +18°C° 0.1 mm 1 mps 555 mmHg 70%
    20:00 +16°C° 0.1 mm 1 mps 555 mmHg 74%
    21:00 +15°C° 0.1 mm 1 mps 555 mmHg 75%
    22:00 +15°C° 0.1 mm 2 mps 555 mmHg 77%
    23:00 +15°C° 0.1 mm 2 mps 555 mmHg 78%

    24 April, Wednesday

    Time Temperature Precipitation Wind Pressure Humidity
    00:00 +15°C° 0.1 mm 1 mps 555 mmHg 79%
    01:00 +14°C° 0.1 mm 1 mps 555 mmHg 80%
    02:00 +14°C° 0.1 mm 1 mps 554 mmHg 80%
    03:00 +14°C° 0.1 mm 1 mps 554 mmHg 81%
    04:00 +14°C° 0.1 mm 1 mps 554 mmHg 82%
    05:00 +13°C° 0.1 mm 1 mps 554 mmHg 82%
    06:00 +14°C° 0.1 mm 1 mps 555 mmHg 79%
    07:00 +15°C° 0.1 mm 1 mps 556 mmHg 75%
    08:00 +16°C° 0.1 mm 1 mps 557 mmHg 72%
    09:00 +18°C° 0.2 mm 1 mps 557 mmHg 68%
    10:00 +18°C° 0.2 mm 2 mps 558 mmHg 65%
    11:00 +20°C° 0.2 mm 2 mps 558 mmHg 61%
    12:00 +20°C° 0.5 mm 2 mps 558 mmHg 60%
    13:00 +20°C° 0.5 mm 3 mps 557 mmHg 60%
    14:00 +21°C° 0.5 mm 3 mps 556 mmHg 59%
    15:00 +21°C° 0.1 mm 3 mps 556 mmHg 59%
    16:00 +20°C° 0.1 mm 3 mps 556 mmHg 60%
    17:00 +20°C° 0.1 mm 2 mps 556 mmHg 60%
    18:00 +19°C° 0.1 mm 2 mps 556 mmHg 65%
    19:00 +18°C° 0.1 mm 2 mps 555 mmHg 71%
    20:00 +16°C° 0.1 mm 2 mps 555 mmHg 76%
    21:00 +16°C° 0.3 mm 2 mps 556 mmHg 77%
    22:00 +16°C° 0.3 mm 2 mps 556 mmHg 78%
    23:00 +16°C° 0.3 mm 2 mps 556 mmHg 80%

    25 April, Thursday

    Time Temperature Precipitation Wind Pressure Humidity
    00:00 +15°C° 0.4 mm 1 mps 556 mmHg 80%
    01:00 +15°C° 0.4 mm 1 mps 556 mmHg 80%
    02:00 +15°C° 0.4 mm 1 mps 556 mmHg 81%
    03:00 +15°C° 0.4 mm 1 mps 555 mmHg 82%
    04:00 +14°C° 0.4 mm 1 mps 555 mmHg 82%
    05:00 +14°C° 0.4 mm 1 mps 555 mmHg 83%
    06:00 +15°C° 0.9 mm 1 mps 556 mmHg 81%
    07:00 +15°C° 0.9 mm 1 mps 556 mmHg 78%
    08:00 +16°C° 0.9 mm 1 mps 557 mmHg 75%
    09:00 +17°C° 0.8 mm 2 mps 557 mmHg 72%
    10:00 +17°C° 0.8 mm 2 mps 557 mmHg 69%
    11:00 +18°C° 0.8 mm 2 mps 558 mmHg 66%
    12:00 +19°C° 0.4 mm 2 mps 557 mmHg 63%
    13:00 +20°C° 0.4 mm 3 mps 557 mmHg 59%
    14:00 +21°C° 0.4 mm 3 mps 556 mmHg 56%
    15:00 +21°C° 0.1 mm 3 mps 556 mmHg 57%
    16:00 +21°C° 0.1 mm 3 mps 556 mmHg 59%
    17:00 +20°C° 0.1 mm 3 mps 556 mmHg 60%
    18:00 +19°C° 0.2 mm 3 mps 555 mmHg 66%
    19:00 +18°C° 0.2 mm 3 mps 555 mmHg 73%
    20:00 +16°C° 0.2 mm 3 mps 555 mmHg 79%
    21:00 +16°C° 0.1 mm 3 mps 556 mmHg 80%
    22:00 +16°C° 0.1 mm 2 mps 556 mmHg 81%
    23:00 +16°C° 0.1 mm 2 mps 556 mmHg 82%
    Show more